Regional Weather Roundup
Issued by NWS Kansas City/Pleasant Hill, MO

Home | Current Version | Previous Version | Graphics & Text | Print | Product List | Glossary Off
Versions: 1 2 3 4 5 6 7 8 9 10 11 12 13 14 15 16 17 18 19 20 21 22 23 24 25 26 27 28 29 30 31 32 33 34 35 36 37 38 39 40 41 42 43 44 45 46 47 48 49 50

000
ASUS43 KEAX 292011
RWREAX

WEATHER ROUNDUP FOR EASTERN KANSAS AND NORTHWEST MISSOURI
NATIONAL WEATHER SERVICE KANSAS CITY/PLEASANT HILL MO
300 PM CDT TUE JUL 29 2014

KSZ040-057-103>105-MOZ028-029-037-043-292100-
...KANSAS CITY METROPOLITAN AREA...

CITY           SKY/WX    TMP DP  RH WIND       PRES   REMARKS
K.C. INTL      PTSUNNY   79  57  46 N8        30.15F
K.C. DOWNTOWN  MOSUNNY   82  57  42 W10       30.13F
LEES SUMMIT    MOSUNNY   81  54  39 N9        30.15F
OLATHE - IXD   MOSUNNY   81  54  39 W7G20     30.16F
OLATHE - OJC   MOSUNNY   82  55  39 VRB7      30.15F
LAWRENCE       PTSUNNY   82  59  45 NW7       30.15F

$$

MOZ001>008-011>017-020>025-030>033-038>040-044>046-053-054-292100-
...NORTHERN AND CENTRAL MISSOURI...

CITY           SKY/WX    TMP DP  RH WIND       PRES   REMARKS
ST. JOSEPH     PTSUNNY   78  59  51 CALM      30.15F
MOSBY          PTCLDY    79  55  44 W8        30.14F
WARRENSBURG    MOSUNNY   79  55  44 W6        30.13F
WHITEMAN AFB   MOSUNNY   81  43  25 N7        30.13F
CLINTON        MOSUNNY   82  59  44 NW3       30.14F
SEDALIA        MOSUNNY   82  60  47 NW8       30.15F
WARSAW         NOT AVBL
MARSHALL       SUNNY     82  61  47 W5        30.15F
CHILLICOTHE      N/A     79  55  43 VRB5      30.15F
MOBERLY        PTSUNNY   79  54  41 N6        30.15F
KIRKSVILLE     MOSUNNY   77  55  46 W9        30.15F

$$

MOZ041-047>049-056>058-063>065-088>090-097-292100-
...EASTERN AND SOUTHERN MISSOURI...

CITY           SKY/WX    TMP DP  RH WIND       PRES   REMARKS
ST. LOUIS INTL MOSUNNY   80  57  45 NW6       30.13F
SPIRIT OF STL  PTSUNNY   82  52  35 NW8       30.12S
COLUMBIA       MOSUNNY   79  55  43 NW12      30.14F
JEFFERSON CITY MOSUNNY   81  55  40 N9        30.13F
MEXICO         MOSUNNY   81  61  50 NW6       30.14F
HANNIBAL       MOSUNNY   81  50  34 N5        30.14F
ROLLA          MOSUNNY   80  51  36 N9        30.13F
LEBANON        SUNNY     84  50  30 NW7       30.15F
OSAGE BEACH    MOSUNNY   81  54  39 NW5       30.13F
SPRINGFIELD    MOSUNNY   82  52  35 N6        30.15F
BRANSON        MOSUNNY   86  52  30 NW6       30.16F
JOPLIN         CLOUDY    80  56  43 NW9       30.16F
WEST PLAINS    MOSUNNY   80  55  42 NW7       30.16F
MALDEN         MOSUNNY   79  54  41 NE8       30.15S

$$

IAZ060-094-KSZ022-034>040-054-083-096-NEZ052-066-093-292100-
...KANSAS...SOUTHEAST NEBRASKA AND IOWA...

CITY           SKY/WX    TMP DP  RH WIND       PRES   REMARKS
TOPEKA         MOSUNNY   83  58  42 W7        30.15F
MANHATTAN      CLOUDY    77  58  51 VRB3      30.16F
EMPORIA        CLOUDY    72  58  61 NE3       30.18F
CHANUTE        CLOUDY    72  58  61 NE8       30.18F
WICHITA        PTSUNNY   86  60  41 E9        30.12F
OMAHA          PTSUNNY   79  52  38 N6        30.17F
LINCOLN        PTSUNNY   82  51  34 NE7       30.18F
FALLS CITY     MOSUNNY   81  56  42 NE5       30.15F
LAMONI         CLOUDY    77  57  50 N7        30.16F
DES MOINES     MOSUNNY   79  53  40 W12       30.14F

$$




USA.gov is the U.S. government's official web portal to all federal, state and local government web resources and services.